| time (UTC) | temp F | wind direction | speed MPH | gust MPH | rain 1hr in | rain 24hr in | rain mn in | humidity % | barometer mb |
| 20260504211554 | 47 | 229 | 5.0 | 9.0 | 0.00 | 0.00 | 0.00 | 71 | 1014.5 |
| 20260504210050 | 47 | 219 | 5.0 | 10.0 | 0.00 | 0.00 | 0.00 | 72 | 1014.4 |
| 20260504204550 | 46 | 206 | 4.0 | 9.0 | 0.00 | 0.00 | 0.00 | 74 | 1014.4 |
| 20260504203046 | 45 | 231 | 5.0 | 10.0 | 0.00 | 0.00 | 0.00 | 76 | 1014.5 |
| 20260504201559 | 45 | 223 | 4.0 | 11.0 | 0.00 | 0.00 | 0.00 | 76 | 1014.6 |
| 20260504200045 | 44 | 232 | 6.0 | 12.0 | 0.00 | 0.00 | 0.00 | 79 | 1014.4 |
| 20260504194547 | 44 | 222 | 4.0 | 10.0 | 0.00 | 0.00 | 0.00 | 81 | 1014.6 |
| 20260504193039 | 44 | 226 | 5.0 | 10.0 | 0.00 | 0.00 | 0.00 | 80 | 1014.5 |
| 20260504191548 | 43 | 229 | 4.0 | 9.0 | 0.00 | 0.00 | 0.00 | 83 | 1014.4 |
| 20260504190039 | 43 | 225 | 3.0 | 10.0 | 0.00 | 0.00 | 0.00 | 82 | 1014.4 |
| 20260504184549 | 42 | 224 | 5.0 | 9.0 | 0.00 | 0.00 | 0.00 | 84 | 1014.6 |
| 20260504183036 | 43 | 196 | 3.0 | 8.0 | 0.00 | 0.00 | 0.00 | 82 | 1014.3 |
| 20260504181536 | 42 | 238 | 4.0 | 9.0 | 0.00 | 0.00 | 0.00 | 85 | 1014.0 |
| 20260504180031 | 42 | 236 | 5.0 | 9.0 | 0.00 | 0.00 | 0.00 | 85 | 1013.9 |
| 20260504174527 | 40 | 197 | 5.0 | 10.0 | 0.00 | 0.00 | 0.00 | 88 | 1013.4 |
| 20260504173023 | 40 | 214 | 4.0 | 9.0 | 0.00 | 0.00 | 0.00 | 90 | 1013.3 |
| 20260504171520 | 39 | 169 | 5.0 | 14.0 | 0.00 | 0.00 | 0.00 | 93 | 1013.0 |
| 20260504140111 | 34 | 261 | 6.0 | 11.0 | 0.00 | 0.00 | 0.00 | 94 | 1010.2 |
| 20260504081527 | 36 | 193 | 7.0 | 14.0 | 0.00 | 0.00 | 0.00 | 94 | 1008.6 |
| 20260504060107 | 37 | 207 | 5.0 | 14.0 | 0.00 | 0.00 | 0.00 | 92 | 1006.9 |
| 20260504044552 | 38 | 173 | 7.0 | 14.0 | 0.00 | 0.00 | 0.00 | 88 | 1007.5 |
| 20260504043048 | 39 | 201 | 5.0 | 11.0 | 0.00 | 0.00 | 0.00 | 88 | 1007.7 |
| 20260504041547 | 39 | 184 | 5.0 | 11.0 | 0.00 | 0.00 | 0.00 | 88 | 1007.6 |
| 20260504040047 | 39 | 176 | 4.0 | 10.0 | 0.00 | 0.00 | 0.00 | 87 | 1007.9 |
| 20260504034542 | 40 | 229 | 4.0 | 9.0 | 0.00 | 0.00 | 0.00 | 87 | 1007.8 |
| 20260504033050 | 40 | 175 | 5.0 | 11.0 | 0.00 | 0.00 | 0.00 | 87 | 1007.7 |
| 20260504031541 | 40 | 216 | 5.0 | 16.0 | 0.00 | 0.00 | 0.00 | 87 | 1007.5 |
| 20260504030037 | 40 | 205 | 4.0 | 12.0 | 0.00 | 0.00 | 0.00 | 87 | 1007.2 |
| 20260504024544 | 41 | 169 | 5.0 | 9.0 | 0.00 | 0.00 | 0.00 | 86 | 1007.2 |
| 20260504023032 | 42 | 190 | 4.0 | 9.0 | 0.00 | 0.00 | 0.00 | 86 | 1007.3 |
| 20260504021528 | 43 | 183 | 5.0 | 8.0 | 0.00 | 0.00 | 0.00 | 83 | 1007.3 |
| 20260504020025 | 44 | 162 | 5.0 | 10.0 | 0.00 | 0.00 | 0.00 | 82 | 1006.9 |
| 20260504014520 | 45 | 219 | 4.0 | 13.0 | 0.00 | 0.00 | 0.00 | 80 | 1007.0 |
| 20260504013018 | 47 | 182 | 5.0 | 9.0 | 0.00 | 0.00 | 0.00 | 77 | 1006.6 |
| 20260504011513 | 49 | 182 | 3.0 | 10.0 | 0.00 | 0.00 | 0.00 | 72 | 1006.7 |
| 20260504010011 | 50 | 126 | 4.0 | 10.0 | 0.00 | 0.00 | 0.00 | 70 | 1006.5 |
| 20260504004515 | 51 | 176 | 4.0 | 7.0 | 0.00 | 0.00 | 0.00 | 67 | 1006.7 |
| 20260504003006 | 51 | 186 | 5.0 | 10.0 | 0.00 | 0.00 | 0.00 | 66 | 1006.9 |
| 20260504001504 | 53 | 208 | 4.0 | 16.0 | 0.00 | 0.00 | 0.00 | 64 | 1006.9 |
| 20260504000003 | 56 | 181 | 4.0 | 9.0 | 0.00 | 0.00 | 0.00 | 59 | 1007.1 |
| 20260503234502 | 56 | 220 | 4.0 | 9.0 | 0.00 | 0.00 | 0.00 | 59 | 1006.7 |
| 20260503233100 | 57 | 223 | 3.0 | 10.0 | 0.00 | 0.00 | 0.00 | 57 | 1006.9 |
| 20260503231600 | 58 | 163 | 3.0 | 16.0 | 0.00 | 0.00 | 0.00 | 57 | 1007.0 |
| 20260503230108 | 58 | 171 | 4.0 | 10.0 | 0.00 | 0.00 | 0.00 | 56 | 1007.1 |
| 20260503224557 | 59 | 192 | 4.0 | 9.0 | 0.00 | 0.00 | 0.00 | 60 | 1006.9 |
| 20260503223059 | 61 | 168 | 4.0 | 10.0 | 0.00 | 0.00 | 0.00 | 53 | 1007.0 |
| 20260503221556 | 61 | 184 | 3.0 | 11.0 | 0.00 | 0.00 | 0.00 | 52 | 1007.2 |
| 20260503220058 | 62 | 173 | 4.0 | 11.0 | 0.00 | 0.00 | 0.00 | 49 | 1007.6 |
| 20260503214549 | 62 | 196 | 4.0 | 8.0 | 0.00 | 0.00 | 0.00 | 50 | 1007.8 |
| 20260503213053 | 63 | 194 | 4.0 | 10.0 | 0.00 | 0.00 | 0.00 | 47 | 1007.9 |